Regional Weather Roundup
Issued by NWS

Home | Current Version | Previous Version | Graphics & Text | Print | Product List | Glossary On
Versions: 1 2 3 4 5 6 7 8 9 10 11 12 13 14 15 16 17 18 19 20 21 22 23 24 25 26 27 28 29 30 31 32 33 34 35 36 37 38 39 40 41 42 43 44 45 46 47 48 49 50
000
ASUS44 KMEG 281010
RWRTN
TENNESSEE HOURLY STATE WEATHER ROUNDUP
NATIONAL WEATHER SERVICE MEMPHIS TN
400 AM CST TUE FEB 28 2017

TNZ002-004-019-021-049-052-054-088>092-281100-
WEST TENNESSEE

CITY           SKY/WX    TMP DP  RH WIND       PRES   REMARKS
MEMPHIS INTL   CLOUDY    63  60  90 S15       30.02F
NWS MEMPHIS      N/A     60 N/A N/A MISG        N/A
JACKSON        CLOUDY    60  57  89 S15G24    30.03F
UNION CITY     CLOUDY    57  57 100 S14       29.99F
PARIS          CLOUDY    54  52  94 S13       30.03S
HUNTINGDON     CLOUDY    59  55  88 S12       30.03F
$$

TNZ008-025-027-028-033-062-065-066-281100-
NORTH MIDDLE TENNESSEE

CITY           SKY/WX    TMP DP  RH WIND       PRES   REMARKS
NASHVILLE      CLOUDY    55  50  83 S12       30.11F
PORTLAND       CLOUDY    54  50  87 S16G22    30.08S
CLARKSVILLE    CLOUDY    55  49  80 S9        30.05F
SMYRNA         CLOUDY    53  50  89 S10G18    30.13F
COOKEVILLE     CLOUDY    54  50  87 S9G18     30.15R
GALLATIN       CLOUDY    54  50  87 VRB7G14   30.15S
CROSSVILLE     CLOUDY    51  48  89 S9G17     30.20R
$$

TNZ061-075-076-078-094-096-097-281100-
SOUTH MIDDLE TENNESSEE

CITY           SKY/WX    TMP DP  RH WIND       PRES   REMARKS
FAYETTEVILLE   CLOUDY    54  52  94 S14       30.17F
TULLAHOMA      PTCLDY    50  48  93 S9        30.17F
WINCHESTER     MOCLDY    52  50  93 S10       30.19S
MCMINNVILLE    PTCLDY    48  48 100 S3        30.17R
COLUMBIA       CLOUDY   N/A N/A N/A S8        30.11S
SHELBYVILLE    PTCLDY    54  52  94 S9        30.16F
$$

TNZ017-018-042-046-047-281100-
NORTHEAST TENNESSEE

CITY           SKY/WX    TMP DP  RH WIND       PRES   REMARKS
TRI CITIES     CLEAR     38  34  85 CALM      30.21F
ELIZABETHTON   CLEAR     43  37  81 E7        30.22F
$$

TNZ012-013-036-069-073-074-281100-
CENTRAL EAST TENNESSEE

CITY           SKY/WX    TMP DP  RH WIND       PRES   REMARKS
KNOXVILLE      CLEAR     42  37  82 NW5       30.21R
OAK RIDGE      CLOUDY    43  39  86 CALM      30.24R
DOWNTOWN KNOXV CLEAR     37  37 100 CALM      30.23R
GATLINBURG     CLEAR     34  30  86 CALM      30.21R
MORRISTOWN     CLEAR     39  34  81 NE5       30.20R
JACKSBORO      PTCLDY    36  36 100 CALM      30.24S
$$

TNZ083-085-099-281100-
SOUTHEAST TENNESSEE

CITY           SKY/WX    TMP DP  RH WIND       PRES   REMARKS
CHATTANOOGA    CLOUDY    48  45  89 W3        30.25R
$$

SKY/WX REPORTED AS FAIR MEANS FEW OR NO CLOUDS BELOW
12 THOUSAND FEET.




USA.gov is the U.S. government's official web portal to all federal, state and local government web resources and services.